JA6YCL-13 Weather Reports


Display with metric or nautical units.
time (UTC)temp
F
wind
direction
speed
MPH
gust
MPH
rain 1hr
in
rain 24hr
in
rain mn
in
humidity
%
barometer
mb
20260505124238 61 260 1.0 2.0 0.00 0.00 0.00 59 1020.5
20260505122953 61 188 1.0 4.0 0.00 0.00 0.00 61 1020.6
20260505121733 61 229 0.0 2.0 0.00 0.00 0.00 61 1020.6
20260505120433 62 229 1.0 6.0 0.00 0.00 0.00 62 1020.3
20260505114943 62 164 1.0 2.0 0.00 0.00 0.00 61 1020.0
20260505113738 62 185 2.0 6.0 0.00 0.00 0.00 61 1019.8
20260505112355 62 195 1.0 7.0 0.00 0.00 0.00 60 1019.7
20260505111123 62 154 2.0 6.0 0.00 0.00 0.00 61 1019.6
20260505101923 63 157 3.0 7.0 0.00 0.00 0.00 56 1019.1
20260505100447 63 150 3.0 7.0 0.00 0.00 0.00 55 1018.9
20260505095133 64 130 5.0 10.0 0.00 0.00 0.00 54 1018.9
20260505093910 64 117 2.0 10.0 0.00 0.00 0.00 53 1018.9
20260505092618 65 96 5.0 13.0 0.00 0.00 0.00 51 1018.7
20260505091353 65 115 4.0 11.0 0.00 0.00 0.00 49 1018.9
20260505085916 66 109 5.0 10.0 0.00 0.00 0.00 46 1018.5
20260505084543 66 118 5.0 11.0 0.00 0.00 0.00 46 1018.5
20260505083323 67 145 6.0 10.0 0.00 0.00 0.00 45 1018.3
20260505082128 67 136 4.0 9.0 0.00 0.00 0.00 44 1018.1
20260505080758 68 121 8.0 15.0 0.00 0.00 0.00 41 1017.9
20260505075304 69 119 6.0 13.0 0.00 0.00 0.00 39 1017.9
20260505073942 69 135 7.0 17.0 0.00 0.00 0.00 38 1017.8
20260505072619 69 123 7.0 17.0 0.00 0.00 0.00 38 1017.7
20260505071308 71 115 7.0 13.0 0.00 0.00 0.00 37 1017.6
20260505065915 72 117 8.0 15.0 0.00 0.00 0.00 36 1017.6
20260505064452 75 150 4.0 9.0 0.00 0.00 0.00 34 1017.5
20260505063009 74 163 4.0 11.0 0.00 0.00 0.00 33 1017.5
20260505061757 73 101 6.0 13.0 0.00 0.00 0.00 31 1017.4
20260505060512 73 107 6.0 11.0 0.00 0.00 0.00 29 1017.7
20260505055123 74 124 7.0 13.0 0.00 0.00 0.00 28 1017.6
20260505053730 74 106 4.0 10.0 0.00 0.00 0.00 27 1017.6
20260505052310 73 114 7.0 15.0 0.00 0.00 0.00 25 1017.8
20260505050853 73 110 5.0 10.0 0.00 0.00 0.00 24 1018.0
20260505041502 75 188 3.0 10.0 0.00 0.00 0.00 24 1018.4
20260505040158 73 117 3.0 7.0 0.00 0.00 0.00 25 1018.7
20260505034903 72 109 4.0 8.0 0.00 0.00 0.00 26 1019.0
20260505033608 73 355 3.0 6.0 0.00 0.00 0.00 28 1019.2
20260505032353 72 95 2.0 4.0 0.00 0.00 0.00 27 1019.3
20260505031157 72 101 3.0 8.0 0.00 0.00 0.00 26 1019.6
20260505025913 73 133 2.0 8.0 0.00 0.00 0.00 23 1019.7
20260505024513 71 29 2.0 6.0 0.00 0.00 0.00 28 1019.8
20260505023218 70 71 3.0 7.0 0.00 0.00 0.00 29 1019.9
20260505021825 70 91 5.0 7.0 0.00 0.00 0.00 29 1020.0
20260505020500 69 115 2.0 7.0 0.00 0.00 0.00 31 1020.2
20260505015110 68 107 3.0 7.0 0.00 0.00 0.00 33 1020.5
20260505013708 67 66 3.0 6.0 0.00 0.00 0.00 32 1020.7
20260505012243 67 35 2.0 6.0 0.00 0.00 0.00 35 1020.7
20260505010942 67 103 4.0 8.0 0.00 0.00 0.00 33 1020.7
20260505005710 66 40 1.0 4.0 0.00 0.00 0.00 35 1020.7
20260505004403 66 94 2.0 4.0 0.00 0.00 0.00 40 1020.8
20260505003118 65 100 2.0 6.0 0.00 0.00 0.00 42 1020.9
20260505001808 64 291 1.0 2.0 0.00 0.00 0.00 45 1020.9
20260505000445 63 304 1.0 2.0 0.00 0.00 0.00 47 1021.1
20260504235223 64 178 1.0 2.0 0.00 0.00 0.00 45 1021.2
20260504234003 62 201 1.0 3.0 0.00 0.00 0.00 49 1021.3
20260504232748 60 235 1.0 2.0 0.00 0.00 0.00 48 1021.2
20260504231318 58 240 1.0 2.0 0.00 0.00 0.00 57 1021.2
20260504225818 57 238 2.0 4.0 0.00 0.00 0.00 59 1021.4
20260504224548 56 234 1.0 3.0 0.00 0.00 0.00 61 1021.5
20260504223131 55 249 1.0 3.0 0.00 0.00 0.00 64 1021.3
20260504221704 53 228 1.0 1.0 0.00 0.00 0.00 68 1021.3
20260504220421 51 234 1.0 2.0 0.00 0.00 0.00 73 1021.3
20260504215038 50 239 3.0 4.0 0.00 0.00 0.00 75 1021.3
20260504213803 49 242 1.0 3.0 0.00 0.00 0.00 79 1021.4
20260504212548 48 226 0.0 1.0 0.00 0.00 0.00 80 1021.3
20260504211106 48 225 0.0 1.0 0.00 0.00 0.00 80 1021.1
20260504205738 47 224 0.0 1.0 0.00 0.00 0.00 82 1020.9
20260504204533 47 224 0.0 0.0 0.00 0.00 0.00 82 1020.8
20260504203308 48 224 0.0 1.0 0.00 0.00 0.00 80 1020.8
20260504201913 47 224 0.0 1.0 0.00 0.00 0.00 83 1020.7
20260504200518 48 221 0.0 1.0 0.00 0.00 0.00 82 1020.6
20260504195247 48 213 1.0 2.0 0.00 0.00 0.00 82 1020.6
20260504193933 47 203 0.0 1.0 0.00 0.00 0.00 83 1020.5
20260504192718 48 203 0.0 1.0 0.00 0.00 0.00 83 1020.3
20260504191503 49 218 0.0 1.0 0.00 0.00 0.00 80 1020.4
20260504190038 48 238 0.0 0.0 0.00 0.00 0.00 82 1020.3
20260504184808 49 239 0.0 1.0 0.00 0.00 0.00 79 1020.2
20260504183403 49 244 0.0 1.0 0.00 0.00 0.00 80 1020.0
20260504182108 49 244 0.0 0.0 0.00 0.00 0.00 80 1020.0
20260504180653 49 244 1.0 3.0 0.00 0.00 0.00 79 1019.7
20260504175438 49 243 0.0 3.0 0.00 0.00 0.00 80 1019.7
20260504174213 50 229 1.0 3.0 0.00 0.00 0.00 79 1019.5
20260504172917 50 210 0.0 1.0 0.00 0.00 0.00 77 1019.3
20260504171613 51 211 0.0 1.0 0.00 0.00 0.00 75 1019.3
20260504170352 51 0.0 0.0 0.00 0.00 0.00 74 1019.2
20260504150208 54 229 0.0 0.0 0.00 0.00 0.00 65 1019.1
20260504140828 56 223 1.0 1.0 0.00 0.00 0.00 58 1018.8